Find Starlink 3673

NORAD ID: 52093 Int'l Des: 2022-029 Owner: SPXS Country: US Constellation: starlink operational
LEOCIRCULAR

Live Position

Loading 3D Globe...

About Starlink 3673

Description loading...

Upcoming Passes

Passes for default location (London). Set your location on the main map for personalized predictions.

Altitude History

Loading altitude history...

Two-Line Element Set

1 52093U 22029F 26122.92486324 -.00000150 00000-0 86852-5 0 9996
2 52093 53.2170 205.6586 0001190 86.3812 273.7316 15.08836489228845
Epoch: May 2, 2026 • Age: 7 hours

Current Status

Altitude 545.5 km
Velocity 7.60 km/s
Sub-Earth Point 53.02°N, 9.68°W
Launch Date Mar 19, 2022
Age 4.1 years
Type internet

Technical Details

Classification Payload
Mass 297.00 kg
Dry Mass 275.00 kg
Total Mass 297.00 kg
Length 0.20 m
Diameter 2.80 m
Span 9.00 m
Shape Box + pan
Manufacturer SPXS
Bus Type Starlink
Phase Status In Orbit
Owner/State SPXS/US

Most Searched